Tracking 30918 objects as of 2-Jul-2025
HD Live streaming from Space Station
objects crossing your sky now

ARIANE 42P DEB

Track ARIANE 42P DEB now!
10-day predictions


NORAD ID: 44511
Int'l Code: 1992-052J
Perigee: 1,294.0 km
Apogee: 1,368.4 km
Inclination: 66.1 °
Period: 112.1 minutes
Semi major axis: 7702 km
RCS: Unknown
Launch date: August 10, 1992
Source: France (FR)
Launch site: FRENCH GUIANA (FRGUI)

Note: This is SATELLITE DEBRIS
Your satellite tracking list
Your tracking list is empty




NASA's NSSDC Master Catalog

Two Line Element Set (TLE):
1 44511U 92052J   25181.59422996  .00000864  00000-0  38122-2 0  9992
2 44511  66.0643 293.5691 0048350 106.8908 253.7419 12.84344457275051
Source of the keplerian elements: AFSPC